Weather in Nizhniye Kivary

Russia / Udmurt Republic     57°19′26″N   54°05′18″E
temp.,
°C
wind,
m/s
gust,
m/s
humid.,
%
clouds,
%
prec.,
mm/h
press.,
hPa
HPBL,
m
13 june, sun
sun1301:00+13ese3991100 0.0 1016273
04:00+12ese498692 0.0 1016178
07:00+16se5127473 0.0 1015463
10:00+19sse6107794 2.0 1016821
13:00+23sse786340 0.3 10151481
16:00+22sse7875100 2.3 1015940
19:00+19s4108867 3.6 1015341
22:00+16sse34948 3.8 101678
14 june, mon
mon1401:00+15s349583 0.0 101673
04:00+15sse339593 0.0 101650
07:00+18s3689100 0.4 1017236
10:00+22ssw5870100 0.4 1017747
13:00+25ssw7960100 0.1 10161458
16:00+24sw6966100 0.3 10161515
19:00+23ssw587624 0.8 1015277
22:00+18sw378998 0.9 1016118
15 june, tue
tue1501:00+17sw248998 0.0 101673
04:00+17sw228971 0.0 101613
07:00+19sw228261 0.0 1015229
10:00+24sw346691 0.4 1014796
13:00+26wsw355427 0.4 10131860
16:00+27ssw345139 0.5 10121651
19:00+24s2472100 0.4 101182
22:00+18se22915 3.8 101222
16 june, wed
wed1601:00+17sw22915 0.1 101117
04:00+16ssw229436 1.0 101120
07:00+20s24865 0.1 1011242
10:00+24ssw457045 1.9 1010600
13:00+27sw46538 0.2 10091806
16:00+26ssw676029 0.2 10071127
19:00+24ssw497197 0.5 1006275
22:00+18wnw499446 1.9 1006167
17 june, thu
thu1701:00+15nw249565 1.2 100697
04:00+15nw71391100 1.3 1007526
07:00+14nw713845 0.0 1008659
10:00+17nnw89614 0.0 10101469
13:00+17nnw896366 0.2 10121518
16:00+18nw7115277 0.3 10122413
19:00+15n610610 0.0 1014883
22:00+11nw511580 0.0 1016267